Jamestown, ND

9:06 AM CST on January 22, 2018 (GMT -0600)
Jamestown Municipal

Weather History for KJMS - December, 2013

Change the Weather History Date:

Thursday, December 5, 2013

  Actual Average Record
Temperature  
Mean Temperature -2 °F 17 °F  
Max Temperature 2 °F 26 °F 61 °F (1939)
Min Temperature -7 °F 9 °F -23 °F (1950)
Degree Days  
Heating Degree Days 67 48  
Month to date heating degree days 254 234  
Since 1 July heating degree days 2264 2318  
Cooling Degree Days 0 0  
Month to date cooling degree days 0 0  
Year to date cooling degree days 521 446  
Moisture  
Dew Point -8 °F    
Average Humidity 79    
Maximum Humidity 87    
Minimum Humidity 71    
Precipitation  
Precipitation T in 0.01 in 1.07 in (1960)
Month to date precipitation 0.16 0.07  
Year to date precipitation 16.03 18.44  
Sea Level Pressure  
Sea Level Pressure 30.12 in    
Wind  
Wind Speed 20 mph (WNW)    
Max Wind Speed 32 mph    
Max Gust Speed 40 mph    
Visibility 6 miles    
Events Snow    
T = Trace of Precipitation, MM = Missing Value Source: NWS Daily Summary

Daily Weather History Graph

Daily Weather History Graph

Search for Another Location

Airport or City:

Trip Planner

Search our weather history database for the weather conditions in past years. The results will help you decide how hot, cold, wet, or windy it might be!

Date:

Astronomy

Dec. 05, 2013 Rise Set
Actual Time 8:04 AM CST 4:46 PM CST
Civil Twilight 7:29 AM CST 5:21 PM CST
Nautical Twilight 6:51 AM CST 5:59 PM CST
Astronomical Twilight 6:14 AM CST 6:36 PM CST
Moon 10:20 AM CST (12/5) 8:15 PM CST (12/5)
Length of Visible Light 9h 51m
Length of Day
8h 41m
Waxing Crescent, 11% of the Moon is Illuminated
Dec 5
Waxing Crescent
Dec 9
First Quarter
Dec 17
Full
Dec 25
Last Quarter
Jan 1
New

Hourly Weather History & Observations

Time (CST) Temp. Windchill Dew Point Humidity Pressure Visibility Wind Dir Wind Speed Gust Speed Precip Events Conditions
12:29 AM 1.0 °F -23.6 °F -4.0 °F 79% 29.88 in 2.0 mi NW 27.6 mph 35.7 mph N/A Snow Blowing Snow
12:56 AM -0.0 °F -25.1 °F -4.0 °F 83% 30.00 in 2.0 mi NW 27.6 mph 36.8 mph N/A Snow Blowing Snow
1:05 AM -0.0 °F -25.1 °F -4.0 °F 83% 29.88 in 1.8 mi NW 27.6 mph 39.1 mph N/A Snow Blowing Snow
1:26 AM -0.0 °F -24.3 °F -5.1 °F 79% 29.89 in 2.0 mi NW 25.3 mph 36.8 mph N/A Snow Blowing Snow
1:45 AM -0.9 °F -27.5 °F -5.1 °F 83% 29.89 in 1.2 mi WNW 31.1 mph 40.3 mph 0.00 in   Overcast
1:54 AM -0.4 °F -25.2 °F -5.8 °F 78% 29.89 in 2.0 mi WNW 26.5 mph 39.1 mph 0.00 in   Overcast
1:55 AM -0.9 °F -25.9 °F -5.1 °F 83% 30.01 in 2.0 mi WNW 26.5 mph 39.1 mph 0.00 in   Overcast
2:07 AM -0.9 °F -26.7 °F -5.1 °F 83% 29.89 in 1.8 mi WNW 28.8 mph 36.8 mph 0.00 in   Overcast
2:30 AM -0.9 °F -25.5 °F -6.0 °F 79% 29.91 in 2.5 mi WNW 25.3 mph 35.7 mph 0.00 in   Haze
2:51 AM -2.2 °F -27.6 °F -5.8 °F 85% 29.92 in 4.0 mi WNW 26.5 mph - 0.00 in   Overcast
2:56 AM -2.0 °F -26.4 °F -6.0 °F 83% 30.05 in 3.0 mi WNW 24.2 mph 31.1 mph 0.00 in   Mostly Cloudy
3:56 AM -2.0 °F -26.4 °F -7.1 °F 79% 30.06 in 7.0 mi WNW 24.2 mph 31.1 mph N/A   Mostly Cloudy
4:11 AM -2.0 °F -27.8 °F -7.1 °F 79% 29.94 in 2.0 mi WNW 27.6 mph 35.7 mph 0.00 in   Mostly Cloudy
4:23 AM -2.0 °F -26.0 °F -7.1 °F 79% 29.95 in 4.0 mi WNW 23.0 mph 33.4 mph 0.00 in   Haze
4:56 AM -2.0 °F -27.3 °F -7.1 °F 79% 30.08 in 5.0 mi WNW 26.5 mph 36.8 mph 0.00 in   Haze
5:56 AM -2.9 °F -27.6 °F -7.1 °F 82% 30.09 in 6.0 mi NW 24.2 mph 28.8 mph 0.00 in   Mostly Cloudy
6:56 AM -2.9 °F -27.2 °F -8.0 °F 79% 30.11 in 5.0 mi WNW 23.0 mph - 0.00 in   Mostly Cloudy
7:56 AM -2.9 °F -25.0 °F -8.0 °F 79% 30.12 in 10.0 mi WNW 18.4 mph - 0.00 in   Overcast
8:56 AM -2.9 °F -26.1 °F -8.0 °F 79% 30.15 in 7.0 mi WNW 20.7 mph - 0.00 in   Mostly Cloudy
9:09 AM -2.9 °F -26.1 °F -8.0 °F 79% 30.03 in 9.0 mi WNW 20.7 mph - 0.00 in Snow Light Snow
9:20 AM -2.9 °F -26.1 °F -8.0 °F 79% 30.04 in 7.0 mi WNW 20.7 mph - 0.00 in Snow Light Snow
9:32 AM -2.9 °F -26.1 °F -8.0 °F 79% 30.05 in 9.0 mi WNW 20.7 mph 28.8 mph 0.00 in   Scattered Clouds
9:56 AM -2.9 °F -27.6 °F -8.0 °F 79% 30.16 in 5.0 mi WNW 24.2 mph - 0.00 in   Clear
10:56 AM -2.9 °F -27.6 °F -8.0 °F 79% 30.20 in 4.0 mi WNW 24.2 mph 32.2 mph 0.00 in   Clear
11:56 AM -0.9 °F -25.0 °F -8.0 °F 72% 30.20 in 4.0 mi WNW 24.2 mph 33.4 mph 0.00 in   Clear
12:56 PM -0.9 °F -25.5 °F -7.1 °F 75% 30.23 in 4.0 mi WNW 25.3 mph 32.2 mph 0.00 in   Haze
1:24 PM -2.0 °F -26.4 °F -8.0 °F 76% 30.11 in 3.0 mi WNW 24.2 mph - N/A   Haze
1:56 PM -2.0 °F -26.9 °F -8.0 °F 76% 30.24 in 4.0 mi WNW 25.3 mph 33.4 mph N/A   Haze
2:07 PM -2.0 °F -27.8 °F -8.0 °F 76% 30.11 in 4.0 mi WNW 27.6 mph - N/A   Haze
2:20 PM -2.0 °F -28.2 °F -8.0 °F 76% 30.10 in 2.0 mi WNW 28.8 mph - N/A   Haze
2:31 PM -2.0 °F -26.0 °F -8.0 °F 76% 30.11 in 3.0 mi WNW 23.0 mph - N/A   Haze
2:53 PM -2.2 °F -25.7 °F -7.6 °F 78% 30.12 in 5.0 mi WNW 21.9 mph 29.9 mph 0.00 in   Haze
2:56 PM -2.0 °F -25.0 °F -8.0 °F 76% 30.26 in 7.0 mi WNW 20.7 mph 29.9 mph 0.00 in   Scattered Clouds
3:09 PM -2.0 °F -25.5 °F -8.0 °F 76% 30.13 in 7.0 mi WNW 21.9 mph - N/A   Mostly Cloudy
3:25 PM -2.0 °F -24.4 °F -9.0 °F 72% 30.13 in 10.0 mi WNW 19.6 mph - N/A   Mostly Cloudy
3:56 PM -2.9 °F -25.6 °F -9.0 °F 75% 30.27 in 10.0 mi WNW 19.6 mph - N/A   Overcast
4:20 PM -2.9 °F -25.6 °F -9.0 °F 75% 30.14 in 9.0 mi WNW 19.6 mph - N/A   Overcast
4:56 PM -2.9 °F -23.1 °F -9.0 °F 75% 30.30 in 9.0 mi WNW 15.0 mph - N/A   Mostly Cloudy
5:08 PM -2.9 °F -22.4 °F -9.9 °F 72% 30.17 in 10.0 mi WNW 13.8 mph - N/A   Mostly Cloudy
5:56 PM -4.0 °F -22.1 °F -9.9 °F 76% 30.31 in 10.0 mi WNW 11.5 mph - N/A   Clear
6:56 PM -5.1 °F -25.9 °F -9.9 °F 80% 30.34 in 10.0 mi WNW 15.0 mph - N/A   Clear
7:56 PM -6.0 °F -27.0 °F -11.9 °F 75% 30.35 in 10.0 mi WNW 15.0 mph - 0.00 in   Clear
8:56 PM -7.1 °F -28.4 °F -11.9 °F 79% 30.38 in 10.0 mi WNW 15.0 mph - 0.00 in   Clear
9:28 PM -6.0 °F -27.7 °F -11.9 °F 75% 30.24 in 10.0 mi WNW 16.1 mph - 0.00 in   Mostly Cloudy
9:45 PM -7.1 °F -25.9 °F -11.9 °F 79% 30.25 in 10.0 mi WNW 11.5 mph - 0.00 in   Scattered Clouds
9:56 PM -7.1 °F -25.9 °F -11.9 °F 79% 30.40 in 10.0 mi WNW 11.5 mph - 0.00 in   Clear
10:56 PM -6.0 °F -25.5 °F -11.0 °F 79% 30.41 in 10.0 mi WNW 12.7 mph - 0.00 in   Clear
11:56 PM -6.0 °F -27.0 °F -11.0 °F 79% 30.43 in 10.0 mi WNW 15.0 mph - N/A   Partly Cloudy